Terminal Aerodrome Forecast
Issued by NWS

Home | Current Version | Previous Version | Graphics & Text | Print | Product List | Glossary Off
Versions: 1 2 3 4 5 6 7 8 9 10 11 12 13 14 15 16 17 18 19 20 21 22 23 24 25 26 27 28

000
FTUS43 KDDC 181717 AAA
TAFHYS
TAF AMD
KHYS 181717Z 1817/1912 09008KT 2SM BR OVC002
     FM181900 13008KT P6SM SCT008
     FM182000 14009KT P6SM FEW140
     FM190600 20010KT P6SM SKC=

USA.gov is the U.S. government's official web portal to all federal, state and local government web resources and services.